Location: *
(50.9167°S, 179.4000°W)
Time: 18:13:15
(UTC+00:00)

COSMOS 2428 - Pass Details

Date: 25 June 2024
Orbit: 843 x 857 km, 70.9° (Epoch: 18 July)

Event Time Altitude Azimuth Distance (km) Brightness Sun altitude
Exits shadow 17:59:14 - 197° (SSW) 2,713 5.0 -18.1°
Reaches altitude 10° 18:00:04 10° 190° (S) 2,523 4.9 -18.0°
Maximum altitude 18:03:35 16° 152° (SSE) 2,106 4.9 -17.4°
Drops below altitude 10° 18:07:06 10° 115° (ESE) 2,508 5.9 -16.9°
Sets 18:10:35 0° 93° (E) 3,436 7.2 -16.4°
